DW6879 Weather Reports


time (UTC)temp
F
wind
direction
speed
knots
gust
knots
rain 1hr
in
rain 24hr
in
rain mn
in
humidity
%
barometer
mb
20260503054531 53 334 0.0 0.0 0.00 0.00 0.00 64 1011.8
20260503053019 54 334 0.0 0.0 0.00 0.00 0.00 62 1011.8
20260503051515 55 334 0.0 0.0 0.00 0.00 0.00 60 1011.7
20260503050015 57 334 0.0 4.3 0.00 0.00 0.00 60 1011.6
20260503044530 58 31 0.0 0.0 0.00 0.00 0.00 53 1011.3
20260503043013 59 31 0.0 1.7 0.00 0.00 0.00 51 1011.2
20260503041513 60 63 0.0 2.6 0.00 0.00 0.00 51 1011.2
20260503040011 60 181 0.0 0.0 0.00 0.00 0.00 48 1010.9
20260503034511 61 160 0.0 0.0 0.00 0.00 0.00 49 1010.7
20260503033011 61 30 0.0 0.9 0.00 0.00 0.00 48 1010.5
20260503031511 63 30 0.0 0.9 0.00 0.00 0.00 46 1010.3
20260503030015 64 29 0.0 0.9 0.00 0.00 0.00 46 1010.1
20260503024509 66 184 0.0 3.5 0.00 0.00 0.00 43 1009.9
20260503023009 67 152 0.0 4.3 0.00 0.00 0.00 42 1010.0
20260503021509 71 167 0.0 4.3 0.00 0.00 0.00 34 1009.9
20260503020006 74 188 0.0 0.0 0.00 0.00 0.00 36 1009.8
20260503014507 79 188 0.0 0.0 0.00 0.00 0.00 26 1009.8
20260503013002 79 188 0.0 0.0 0.00 0.00 0.00 20 1009.7
20260503011501 78 188 0.0 0.0 0.00 0.00 0.00 27 1009.8
20260503010002 77 188 0.0 0.0 0.00 0.00 0.00 22 1009.9
20260503004600 77 136 0.0 0.0 0.00 0.00 0.00 21 1009.9
20260503003104 77 110 0.0 0.0 0.00 0.00 0.00 28 1009.9
20260503001559 78 187 0.0 4.3 0.00 0.00 0.00 22 1009.9
20260503000111 78 198 0.0 5.2 0.00 0.00 0.00 21 1009.8
20260502234559 78 191 0.0 5.2 0.00 0.00 0.00 24 1010.0
20260502233054 78 192 2.6 7.0 0.00 0.00 0.00 24 1010.1
20260502231614 77 163 0.0 6.1 0.00 0.00 0.00 24 1010.2
20260502230050 77 173 0.0 8.7 0.00 0.00 0.00 26 1010.3
20260502224555 77 187 3.5 8.7 0.00 0.00 0.00 25 1010.6
20260502223041 76 151 1.7 8.7 0.00 0.00 0.00 29 1010.7
20260502221538 76 165 2.6 8.7 0.00 0.00 0.00 27 1010.8
20260502220043 76 173 4.3 8.7 0.00 0.00 0.00 26 1011.1
20260502214533 76 115 7.8 11.3 0.00 0.00 0.00 28 1011.3
20260502213029 77 169 5.2 9.6 0.00 0.00 0.00 27 1011.4
20260502211527 76 140 0.9 10.4 0.00 0.00 0.00 27 1011.5
20260502210024 75 130 0.0 11.3 0.00 0.00 0.00 29 1011.8
20260502204525 75 127 4.3 10.4 0.00 0.00 0.00 31 1011.9
20260502203018 75 119 7.0 13.0 0.00 0.00 0.00 29 1012.1
20260502201516 74 105 7.0 13.0 0.00 0.00 0.00 30 1012.2
20260502200014 74 160 5.2 8.7 0.00 0.00 0.00 29 1012.3
20260502194511 74 112 5.2 12.2 0.00 0.00 0.00 31 1012.5
20260502193009 73 191 0.9 11.3 0.00 0.00 0.00 29 1012.7
20260502191507 73 199 1.7 10.4 0.00 0.00 0.00 29 1012.9
20260502190005 73 120 6.1 12.2 0.00 0.00 0.00 28 1013.0
20260502184502 72 144 0.9 9.6 0.00 0.00 0.00 29 1013.2
20260502183058 70 166 0.0 0.9 0.00 0.00 0.00 31 1013.3
20260502181556 68 121 0.0 0.9 0.00 0.00 0.00 52 1013.5
20260502163040 59 211 0.0 0.0 0.00 0.00 0.00 62 1014.4
20260502161551 57 222 0.0 1.7 0.00 0.00 0.00 61 1014.5
20260502151529 54 304 0.0 0.0 0.00 0.00 0.00 63 1015.0
20260502123008 45 296 0.0 1.7 0.00 0.00 0.00 73 1014.5
20260502121506 45 296 0.0 1.7 0.00 0.00 0.00 72 1014.5
20260502114600 48 296 0.0 0.0 0.00 0.00 0.00 66 1014.4
20260502113055 50 343 0.0 1.7 0.00 0.00 0.00 63 1014.3
20260502111554 50 343 0.0 0.9 0.00 0.00 0.00 61 1014.2
20260502110051 51 296 0.0 0.0 0.00 0.00 0.00 59 1014.3
20260502104548 52 348 0.0 2.6 0.00 0.00 0.00 58 1014.3
20260502103048 52 360 0.0 0.0 0.00 0.00 0.00 56 1014.1
20260502101553 53 117 0.9 5.2 0.00 0.00 0.00 56 1014.1
20260502091531 58 119 5.2 9.6 0.00 0.00 0.00 45 1014.3
20260502071511 59 111 8.7 12.2 0.00 0.00 0.00 43 1014.5